Location: Newark
(48.2500°N, 10.3333°E)
Time: 00:00:26
(UTC+00:00)

N. Korean satellite - Visible Passes

Search period start: 11 December 2019 00:00
Search period end: 21 December 2019 00:00
Orbit: 455 x 506 km, 97.2° (Epoch: 10 December)

Date Brightness Start Highest point End Pass type
(mag) Time Alt. Az. Time Alt. Az. Time Alt. Az.
11 Dec 8.8 04:36:21 10° NE 04:39:23 26° E 04:42:21 10° SSE visible
11 Dec 7.6 06:09:48 10° NNW 06:12:42 24° WNW 06:15:33 10° WSW visible
11 Dec 8.3 16:47:59 10° SSW 16:51:26 36° W 16:54:53 10° NNW visible
12 Dec 9.8 04:11:51 10° ENE 04:13:43 14° E 04:15:35 10° ESE visible
12 Dec 6.7 05:44:00 10° N 05:47:24 45° WNW 05:50:44 10° SW visible
12 Dec 6.9 16:22:15 10° S 16:25:57 74° WSW 16:29:38 10° NNW visible
13 Dec 6.4 05:18:27 10° NNE 05:22:00 86° ESE 05:25:28 10° SSW visible
13 Dec 6.7 15:56:55 10° SSE 16:00:33 55° ENE 16:04:08 10° N visible
13 Dec 10.0 17:32:30 10° WSW 17:34:15 13° W 17:35:59 10° WNW visible
14 Dec 7.9 04:53:09 10° NNE 04:56:31 40° E 04:59:47 10° S visible
14 Dec 8.1 06:27:23 10° NNW 06:29:36 16° WNW 06:31:48 10° WSW visible
14 Dec 9.2 17:05:34 10° SSW 17:08:36 24° W 17:11:37 10° NW visible
15 Dec 9.2 04:28:12 10° NE 04:30:56 21° E 04:33:36 10° SE visible
15 Dec 7.3 06:01:18 10° N 06:04:21 28° WNW 06:07:23 10° SW visible
15 Dec 7.9 16:39:30 10° S 16:43:02 45° W 16:46:35 10° NNW visible
16 Dec 10.0 04:04:16 10° ENE 04:05:14 11° E 04:06:13 10° ESE visible
16 Dec 6.5 05:35:34 10° N 05:39:01 57° WNW 05:42:24 10° SSW visible
16 Dec 6.6 16:13:53 10° SSE 16:17:34 88° E 16:21:15 10° NNW visible
17 Dec 6.8 05:10:06 10° NNE 05:13:36 68° ESE 05:17:01 10° S visible
17 Dec 9.8 17:23:32 10° SW 17:25:47 16° W 17:28:03 10° NW visible
18 Dec 8.3 04:44:53 10° NNE 04:48:04 32° E 04:51:11 10° SSE visible
18 Dec 7.9 06:18:44 10° NNW 06:21:16 19° WNW 06:23:46 10° WSW visible
18 Dec 8.8 16:56:57 10° SSW 17:00:10 28° W 17:03:23 10° NW visible
19 Dec 9.5 04:20:06 10° NE 04:22:26 17° E 04:24:45 10° SE visible
19 Dec 7.0 05:52:47 10° N 05:55:59 35° WNW 05:59:09 10° SW visible
19 Dec 7.4 16:31:02 10° S 16:34:38 57° W 16:38:13 10° NNW visible
20 Dec 6.3 05:27:08 10° N 05:30:37 72° WNW 05:34:01 10° SSW visible
20 Dec 6.5 16:05:34 10° SSE 16:09:11 71° ENE 16:12:48 10° N visible
